GTI7426 SKBO-GOBD

Flight info

Callsign GTI7426
Flight time 7h 25m
Altitude 33000
Route DCT MAVDA UW20 AUC DCT MIQ UN669 ELJEZ/M083F330 DCT 2150N DCT 2340N DCT 22N036W DCT ERNEK/N0495F330 DCT EVKAS DCT BVT DCT MOGSA DCT PIVSA PIVSA1D
Aircraft B77L/H-SDE1E2E3FGHIJ2J3J4J5M1RWXY/LB1D1

Departure

Time 2026-04-25 13:03
Airport El Dorado International Airport (SKBO)

Arrival

Time 2026-04-25 20:29
Airport Blaise Diagne International Airport (GOBD)
Time Latitude Longitude Altitude Speed Heading
2026-04-25 11:51 4.69262 -74.14077 8378 ft 0 kts 38°
2026-04-25 11:53 4.69061 -74.13691 8375 ft 0 kts 37°
2026-04-25 12:26 4.69041 -74.13706 8376 ft 4 kts 40°
2026-04-25 12:26 4.69023 -74.13721 8377 ft 2 kts 37°
2026-04-25 12:26 4.69001 -74.13734 8377 ft 4 kts
2026-04-25 12:27 4.68978 -74.13730 8377 ft 4 kts 318°
2026-04-25 12:27 4.68961 -74.13710 8377 ft 4 kts 303°
2026-04-25 12:27 4.68956 -74.13701 8377 ft 2 kts 307°
2026-04-25 12:33 4.68961 -74.13709 8377 ft 2 kts 307°
2026-04-25 12:33 4.68968 -74.13718 8376 ft 2 kts 307°
2026-04-25 12:33 4.68975 -74.13726 8377 ft 2 kts 307°
2026-04-25 12:34 4.68981 -74.13735 8377 ft 2 kts 307°
2026-04-25 12:34 4.68991 -74.13748 8375 ft 3 kts 307°
2026-04-25 12:34 4.69016 -74.13781 8375 ft 10 kts 307°
2026-04-25 12:34 4.69052 -74.13828 8377 ft 15 kts 307°
2026-04-25 12:35 4.69115 -74.13946 8375 ft 15 kts 275°
2026-04-25 12:35 4.69147 -74.14040 8375 ft 15 kts 307°
2026-04-25 12:35 4.69208 -74.14122 8374 ft 15 kts 307°
2026-04-25 12:35 4.69270 -74.14203 8374 ft 15 kts 307°
2026-04-25 12:36 4.69331 -74.14285 8375 ft 15 kts 307°
2026-04-25 12:36 4.69394 -74.14366 8373 ft 15 kts 307°
2026-04-25 12:36 4.69456 -74.14447 8377 ft 15 kts 307°
2026-04-25 12:36 4.69518 -74.14528 8376 ft 15 kts 308°
2026-04-25 12:37 4.69581 -74.14608 8375 ft 15 kts 308°
2026-04-25 12:37 4.69642 -74.14690 8377 ft 15 kts 306°
2026-04-25 12:37 4.69702 -74.14773 8376 ft 15 kts 306°
2026-04-25 12:37 4.69764 -74.14854 8374 ft 15 kts 308°
2026-04-25 12:38 4.69826 -74.14936 8375 ft 15 kts 307°
2026-04-25 12:38 4.69888 -74.15017 8378 ft 15 kts 307°
2026-04-25 12:38 4.69952 -74.15103 8374 ft 17 kts 307°
2026-04-25 12:38 4.70035 -74.15213 8375 ft 21 kts 307°
2026-04-25 12:39 4.70122 -74.15327 8375 ft 21 kts 307°
2026-04-25 12:39 4.70209 -74.15441 8377 ft 21 kts 307°
2026-04-25 12:39 4.70294 -74.15555 8375 ft 21 kts 307°
2026-04-25 12:39 4.70380 -74.15670 8375 ft 21 kts 307°
2026-04-25 12:40 4.70467 -74.15784 8376 ft 21 kts 307°
2026-04-25 12:40 4.70553 -74.15898 8375 ft 21 kts 307°
2026-04-25 12:40 4.70639 -74.16012 8375 ft 21 kts 307°
2026-04-25 12:40 4.70726 -74.16126 8376 ft 21 kts 307°
2026-04-25 12:41 4.70813 -74.16239 8376 ft 21 kts 307°
2026-04-25 12:41 4.70899 -74.16351 8376 ft 20 kts 307°
2026-04-25 12:41 4.70947 -74.16416 8376 ft 8 kts 307°
2026-04-25 12:41 4.70963 -74.16439 8376 ft 0 kts 307°
2026-04-25 12:45 4.70966 -74.16442 8376 ft 3 kts 307°
2026-04-25 12:45 4.71007 -74.16497 8375 ft 12 kts 307°
2026-04-25 12:45 4.71056 -74.16561 8376 ft 0 kts 307°
2026-04-25 12:49 4.71059 -74.16564 8377 ft 1 kts 307°
2026-04-25 12:49 4.71062 -74.16569 8377 ft 4 kts 307°
2026-04-25 12:49 4.71089 -74.16604 8378 ft 5 kts 307°
2026-04-25 12:49 4.71097 -74.16614 8376 ft 0 kts 307°
2026-04-25 12:52 4.71106 -74.16627 8374 ft 8 kts 307°
2026-04-25 12:52 4.71133 -74.16662 8375 ft 0 kts 307°
2026-04-25 12:53 4.71138 -74.16668 8375 ft 5 kts 307°
2026-04-25 12:53 4.71156 -74.16693 8377 ft 0 kts 306°
2026-04-25 12:53 4.71160 -74.16698 8377 ft 3 kts 306°
2026-04-25 12:53 4.71180 -74.16726 8376 ft 3 kts 307°
2026-04-25 12:54 4.71182 -74.16729 8376 ft 0 kts 307°
2026-04-25 12:55 4.71194 -74.16745 8374 ft 4 kts 307°
2026-04-25 12:55 4.71204 -74.16782 8375 ft 1 kts 247°
2026-04-25 12:56 4.71203 -74.16784 8375 ft 0 kts 245°
2026-04-25 12:57 4.71201 -74.16787 8375 ft 2 kts 242°
2026-04-25 12:57 4.71197 -74.16794 8376 ft 2 kts 236°
2026-04-25 12:57 4.71172 -74.16816 8376 ft 7 kts 216°
2026-04-25 12:58 4.71155 -74.16828 8376 ft 0 kts 216°
2026-04-25 12:58 4.71154 -74.16829 8376 ft 0 kts 216°
2026-04-25 12:59 4.71151 -74.16831 8377 ft 3 kts 216°
2026-04-25 13:00 4.71105 -74.16864 8373 ft 11 kts 216°
2026-04-25 13:00 4.71085 -74.16879 8376 ft 11 kts 216°
2026-04-25 13:00 4.71030 -74.16882 8374 ft 0 kts 127°
2026-04-25 13:02 4.71028 -74.16879 8374 ft 7 kts 127°
2026-04-25 13:02 4.70846 -74.16639 8375 ft 80 kts 127°
2026-04-25 13:02 4.70369 -74.16008 8376 ft 147 kts 127°
2026-04-25 13:03 4.69631 -74.15021 8378 ft 204 kts 126°
2026-04-25 13:03 4.68718 -74.13796 8570 ft 228 kts 127°
2026-04-25 13:03 4.67736 -74.12518 9288 ft 235 kts 136°
2026-04-25 13:03 4.66284 -74.11722 9664 ft 248 kts 175°
2026-04-25 13:04 4.64611 -74.11975 10357 ft 244 kts 206°
2026-04-25 13:04 4.63234 -74.12947 10929 ft 244 kts 228°
2026-04-25 13:04 4.62256 -74.14336 11419 ft 246 kts 248°
2026-04-25 13:04 4.61894 -74.16006 11868 ft 247 kts 266°
2026-04-25 13:05 4.61783 -74.17745 12330 ft 252 kts 266°
2026-04-25 13:05 4.61653 -74.19502 12874 ft 253 kts 265°
2026-04-25 13:05 4.61500 -74.21264 13443 ft 254 kts 262°
2026-04-25 13:05 4.61193 -74.23060 13696 ft 271 kts 259°
2026-04-25 13:06 4.60810 -74.24982 13867 ft 290 kts 256°
2026-04-25 13:06 4.60062 -74.26901 13982 ft 311 kts 242°
2026-04-25 13:06 4.59031 -74.28903 14134 ft 328 kts 240°
2026-04-25 13:06 4.57552 -74.30675 14229 ft 346 kts 220°
2026-04-25 13:07 4.55647 -74.32251 14329 ft 366 kts 222°
2026-04-25 13:07 4.53740 -74.34052 14490 ft 387 kts 225°
2026-04-25 13:07 4.51755 -74.35914 14658 ft 396 kts 217°
2026-04-25 13:07 4.49238 -74.37102 14970 ft 405 kts 196°
2026-04-25 13:08 4.46552 -74.37920 15314 ft 405 kts 206°
2026-04-25 13:08 4.44235 -74.39528 15709 ft 405 kts 221°
2026-04-25 13:08 4.42000 -74.41293 16158 ft 414 kts 215°
2026-04-25 13:08 4.39552 -74.42835 16784 ft 415 kts 208°
2026-04-25 13:09 4.36823 -74.43799 17350 ft 422 kts 190°
2026-04-25 13:09 4.33873 -74.43856 17953 ft 427 kts 172°
2026-04-25 13:09 4.31021 -74.43011 18518 ft 432 kts 154°
2026-04-25 13:09 4.28544 -74.41299 19043 ft 436 kts 135°
2026-04-25 13:10 4.26737 -74.38858 19578 ft 439 kts 117°
2026-04-25 13:10 4.25782 -74.35959 20105 ft 441 kts 97°
2026-04-25 13:10 4.25756 -74.32885 20670 ft 444 kts 81°
2026-04-25 13:10 4.26551 -74.29894 21157 ft 446 kts 66°
2026-04-25 13:11 4.28144 -74.27244 21647 ft 443 kts 51°
2026-04-25 13:11 4.30088 -74.24819 21995 ft 450 kts 50°
2026-04-25 13:11 4.32077 -74.22381 22464 ft 453 kts 50°
2026-04-25 13:11 4.34077 -74.19935 23048 ft 455 kts 50°
2026-04-25 13:12 4.36080 -74.17471 23612 ft 456 kts 50°
2026-04-25 13:12 4.38054 -74.15023 24052 ft 460 kts 51°
2026-04-25 13:12 4.40075 -74.12498 24243 ft 459 kts 51°
2026-04-25 13:12 4.40724 -74.11684 24230 ft 461 kts 51°
2026-04-25 13:13 4.44057 -74.07487 24268 ft 464 kts 51°
2026-04-25 13:13 4.46064 -74.04952 24214 ft 465 kts 51°
2026-04-25 13:13 4.48078 -74.02406 24413 ft 467 kts 51°
2026-04-25 13:13 4.50095 -73.99856 24724 ft 466 kts 51°
2026-04-25 13:14 4.52110 -73.97310 25044 ft 466 kts 52°
2026-04-25 13:14 4.54126 -73.94763 25295 ft 467 kts 52°
2026-04-25 13:14 4.56152 -73.92203 25499 ft 470 kts 52°
2026-04-25 13:14 4.58186 -73.89633 25813 ft 474 kts 52°
2026-04-25 13:15 4.60239 -73.87038 26217 ft 476 kts 52°
2026-04-25 13:15 4.62300 -73.84434 26631 ft 477 kts 52°
2026-04-25 13:15 4.64365 -73.81825 27024 ft 479 kts 52°
2026-04-25 13:15 4.66438 -73.79204 27363 ft 481 kts 52°
2026-04-25 13:16 4.68525 -73.76566 27735 ft 484 kts 52°
2026-04-25 13:16 4.70620 -73.73917 28096 ft 486 kts 52°
2026-04-25 13:16 4.72726 -73.71255 28455 ft 488 kts 53°
2026-04-25 13:16 4.74839 -73.68582 28783 ft 490 kts 53°
2026-04-25 13:17 4.76965 -73.65894 29063 ft 494 kts 52°
2026-04-25 13:17 4.79113 -73.63176 29234 ft 500 kts 52°
2026-04-25 13:17 4.81279 -73.60436 29490 ft 502 kts 53°
2026-04-25 13:17 4.83452 -73.57689 29842 ft 504 kts 53°
2026-04-25 13:18 4.85630 -73.54932 30164 ft 505 kts 53°
2026-04-25 13:18 4.87810 -73.52174 30500 ft 504 kts 53°
2026-04-25 13:18 4.89987 -73.49421 30855 ft 502 kts 53°
2026-04-25 13:18 4.92152 -73.46682 31280 ft 500 kts 53°
2026-04-25 13:19 4.94307 -73.43954 31681 ft 498 kts 53°
2026-04-25 13:19 4.96425 -73.41274 32071 ft 496 kts 53°
2026-04-25 13:19 4.98567 -73.38562 32501 ft 495 kts 54°
2026-04-25 13:19 4.99286 -73.37651 32623 ft 494 kts 54°
2026-04-25 13:20 5.02824 -73.33171 33172 ft 493 kts 54°
2026-04-25 13:20 5.04958 -73.30466 33128 ft 495 kts 54°
2026-04-25 13:20 5.09224 -73.25061 33146 ft 493 kts 54°
2026-04-25 13:21 5.12759 -73.20583 33150 ft 492 kts 54°
2026-04-25 13:21 5.17001 -73.15206 33147 ft 491 kts 54°
2026-04-25 13:22 5.21242 -73.09831 33154 ft 491 kts 54°
2026-04-25 13:23 5.27594 -73.01778 33155 ft 491 kts 54°
2026-04-25 13:23 5.31832 -72.96401 33163 ft 492 kts 54°
2026-04-25 13:24 5.36082 -72.91009 33135 ft 493 kts 54°
2026-04-25 13:24 5.40336 -72.85609 33176 ft 493 kts 54°
2026-04-25 13:25 5.44596 -72.80203 33141 ft 494 kts 54°
2026-04-25 13:25 5.48859 -72.74793 33138 ft 495 kts 54°
2026-04-25 13:26 5.53127 -72.69371 33143 ft 495 kts 54°
2026-04-25 13:26 5.57360 -72.63995 33132 ft 493 kts 54°
2026-04-25 13:27 5.61608 -72.58597 33140 ft 492 kts 54°
2026-04-25 13:27 5.65859 -72.53192 33094 ft 494 kts 54°
2026-04-25 13:28 5.70119 -72.47778 33123 ft 494 kts 54°
2026-04-25 13:28 5.74384 -72.42355 33120 ft 494 kts 54°
2026-04-25 13:29 5.78649 -72.36928 33066 ft 495 kts 54°
2026-04-25 13:29 5.82910 -72.31508 33104 ft 495 kts 54°
2026-04-25 13:30 5.89295 -72.23380 33067 ft 494 kts 54°
2026-04-25 13:31 5.95659 -72.15278 33091 ft 494 kts 54°
2026-04-25 13:31 5.99913 -72.09858 33037 ft 494 kts 54°
2026-04-25 13:32 6.04167 -72.04439 33049 ft 493 kts 54°
2026-04-25 13:32 6.08414 -71.99026 33084 ft 493 kts 54°
2026-04-25 13:33 6.12655 -71.93619 33015 ft 493 kts 54°
2026-04-25 13:33 6.16899 -71.88206 33024 ft 493 kts 54°
2026-04-25 13:34 6.21155 -71.82778 33015 ft 495 kts 54°
2026-04-25 13:34 6.25424 -71.77330 33014 ft 497 kts 54°
2026-04-25 13:35 6.29682 -71.71896 33015 ft 498 kts 54°
2026-04-25 13:35 6.33971 -71.66420 33018 ft 498 kts 54°
2026-04-25 13:36 6.38262 -71.60941 33011 ft 498 kts 54°
2026-04-25 13:36 6.42550 -71.55464 33006 ft 498 kts 54°
2026-04-25 13:37 6.46839 -71.49982 32994 ft 499 kts 53°
2026-04-25 13:37 6.51131 -71.44496 32993 ft 499 kts 53°
2026-04-25 13:38 6.55402 -71.39035 32984 ft 500 kts 53°
2026-04-25 13:38 6.59708 -71.33527 32985 ft 501 kts 53°
2026-04-25 13:39 6.64016 -71.28015 32983 ft 501 kts 53°
2026-04-25 13:39 6.68329 -71.22495 32981 ft 502 kts 53°
2026-04-25 13:40 6.72642 -71.16974 32984 ft 501 kts 53°
2026-04-25 13:40 6.76951 -71.11455 32980 ft 501 kts 53°
2026-04-25 13:41 6.81256 -71.05940 32983 ft 501 kts 53°
2026-04-25 13:41 6.85555 -71.00431 32980 ft 501 kts 53°
2026-04-25 13:42 6.89856 -70.94917 32977 ft 500 kts 53°
2026-04-25 13:42 6.94155 -70.89403 32978 ft 501 kts 53°
2026-04-25 13:43 6.98452 -70.83890 32982 ft 500 kts 53°
2026-04-25 13:43 7.02753 -70.78369 33030 ft 504 kts 53°
2026-04-25 13:44 7.07100 -70.72853 33300 ft 507 kts 50°
2026-04-25 13:44 7.09495 -70.70262 33755 ft 503 kts 47°
2026-04-25 13:44 7.11925 -70.67747 34219 ft 499 kts 46°
2026-04-25 13:44 7.14348 -70.65258 34615 ft 496 kts 46°
2026-04-25 13:45 7.16755 -70.62784 34935 ft 495 kts 47°
2026-04-25 13:45 7.21589 -70.57782 34989 ft 500 kts 47°
2026-04-25 13:46 7.26412 -70.52758 34982 ft 497 kts 47°
2026-04-25 13:46 7.31200 -70.47757 34981 ft 494 kts 47°
2026-04-25 13:47 7.35960 -70.42784 34981 ft 492 kts 47°
2026-04-25 13:47 7.40709 -70.37824 34985 ft 492 kts 47°
2026-04-25 13:48 7.45463 -70.32857 34986 ft 492 kts 47°
2026-04-25 13:48 7.50245 -70.27858 34994 ft 499 kts 47°
2026-04-25 13:49 7.55087 -70.22796 34989 ft 503 kts 47°
2026-04-25 13:49 7.59912 -70.17749 34968 ft 503 kts 47°
2026-04-25 13:50 7.64772 -70.12665 34990 ft 503 kts 47°
2026-04-25 13:50 7.69633 -70.07578 34981 ft 503 kts 47°
2026-04-25 13:51 7.74487 -70.02496 34981 ft 503 kts 47°
2026-04-25 13:51 7.79329 -69.97424 34984 ft 502 kts 47°
2026-04-25 13:52 7.84169 -69.92354 34981 ft 501 kts 47°
2026-04-25 13:52 7.89004 -69.87286 34991 ft 501 kts 47°
2026-04-25 13:53 7.93834 -69.82222 34984 ft 501 kts 47°
2026-04-25 13:53 7.98671 -69.77149 34995 ft 502 kts 47°
2026-04-25 13:54 8.03517 -69.72064 34998 ft 503 kts 47°
2026-04-25 13:54 8.08377 -69.66964 34996 ft 504 kts 47°
2026-04-25 13:55 8.13210 -69.61889 34998 ft 505 kts 47°
2026-04-25 13:55 8.18083 -69.56770 34998 ft 506 kts 47°
2026-04-25 13:56 8.22959 -69.51647 34988 ft 505 kts 47°
2026-04-25 13:56 8.27824 -69.46533 35000 ft 505 kts 47°
2026-04-25 13:57 8.32693 -69.41413 34996 ft 505 kts 47°
2026-04-25 13:57 8.37555 -69.36298 34994 ft 505 kts 47°
2026-04-25 13:58 8.42420 -69.31178 34982 ft 506 kts 47°
2026-04-25 13:58 8.47290 -69.26051 34995 ft 505 kts 47°
2026-04-25 13:59 8.52154 -69.20928 35005 ft 505 kts 47°
2026-04-25 13:59 8.57014 -69.15808 34999 ft 505 kts 47°
2026-04-25 14:00 8.61876 -69.10683 34997 ft 505 kts 47°
2026-04-25 14:00 8.66744 -69.05550 35001 ft 506 kts 47°
2026-04-25 14:01 8.71620 -69.00406 35002 ft 507 kts 47°
2026-04-25 14:01 8.76501 -68.95255 34995 ft 507 kts 47°
2026-04-25 14:02 8.81383 -68.90101 34999 ft 508 kts 47°
2026-04-25 14:02 8.86269 -68.84941 34981 ft 508 kts 47°
2026-04-25 14:03 8.91149 -68.79785 35003 ft 508 kts 47°
2026-04-25 14:03 8.96031 -68.74624 34995 ft 507 kts 47°
2026-04-25 14:04 9.00880 -68.69497 34991 ft 507 kts 47°
2026-04-25 14:04 9.05756 -68.64338 34996 ft 507 kts 47°
2026-04-25 14:05 9.10625 -68.59185 34989 ft 506 kts 47°
2026-04-25 14:05 9.15489 -68.54035 34990 ft 506 kts 47°
2026-04-25 14:06 9.20353 -68.48883 34991 ft 506 kts 47°
2026-04-25 14:06 9.25222 -68.43723 34999 ft 507 kts 47°
2026-04-25 14:07 9.30095 -68.38557 34996 ft 507 kts 47°
2026-04-25 14:07 9.34970 -68.33386 34997 ft 508 kts 47°
2026-04-25 14:08 9.39846 -68.28213 34995 ft 508 kts 47°
2026-04-25 14:08 9.44733 -68.23025 34997 ft 509 kts 47°
2026-04-25 14:09 9.49643 -68.17810 35000 ft 515 kts 47°
2026-04-25 14:09 9.54618 -68.12524 35001 ft 521 kts 47°
2026-04-25 14:10 9.59639 -68.07186 35014 ft 525 kts 47°
2026-04-25 14:10 9.64616 -68.01895 34994 ft 518 kts 47°
2026-04-25 14:11 9.69561 -67.96635 35016 ft 514 kts 47°
2026-04-25 14:11 9.73661 -67.92270 35011 ft 514 kts 47°
2026-04-25 14:12 9.78594 -67.87017 35011 ft 514 kts 47°
2026-04-25 14:12 9.83525 -67.81764 35000 ft 515 kts 47°
2026-04-25 14:13 9.88472 -67.76490 35030 ft 517 kts 47°
2026-04-25 14:13 9.93435 -67.71198 35025 ft 519 kts 47°
2026-04-25 14:14 9.98415 -67.65886 35004 ft 520 kts 47°
2026-04-25 14:14 10.03405 -67.60560 35004 ft 521 kts 47°
2026-04-25 14:15 10.08396 -67.55231 35019 ft 521 kts 47°
2026-04-25 14:15 10.13358 -67.49929 35024 ft 522 kts 47°
2026-04-25 14:16 10.18359 -67.44584 35024 ft 522 kts 47°
2026-04-25 14:16 10.23358 -67.39237 35007 ft 522 kts 47°
2026-04-25 14:17 10.28359 -67.33887 35021 ft 522 kts 47°
2026-04-25 14:17 10.33358 -67.28536 35000 ft 522 kts 47°
2026-04-25 14:18 10.38349 -67.23190 35028 ft 522 kts 47°
2026-04-25 14:18 10.43342 -67.17840 35035 ft 521 kts 47°
2026-04-25 14:19 10.48331 -67.12491 35003 ft 521 kts 47°
2026-04-25 14:19 10.53324 -67.07134 35002 ft 521 kts 47°
2026-04-25 14:20 10.58274 -67.01822 34959 ft 521 kts 47°
2026-04-25 14:20 10.62917 -66.96192 34957 ft 519 kts 57°
2026-04-25 14:21 10.66931 -66.90083 34981 ft 520 kts 58°
2026-04-25 14:21 10.70948 -66.83947 34992 ft 522 kts 57°
2026-04-25 14:22 10.75015 -66.77810 34959 ft 524 kts 57°
2026-04-25 14:22 10.79092 -66.71690 34969 ft 522 kts 57°
2026-04-25 14:23 10.83157 -66.65586 34957 ft 521 kts 57°
2026-04-25 14:23 10.87212 -66.59487 34971 ft 520 kts 57°
2026-04-25 14:24 10.91259 -66.53395 34969 ft 520 kts 57°
2026-04-25 14:24 10.95307 -66.47296 34954 ft 520 kts 57°
2026-04-25 14:25 10.99359 -66.41190 34954 ft 521 kts 57°
2026-04-25 14:25 11.03412 -66.35084 34970 ft 521 kts 57°
2026-04-25 14:26 11.07533 -66.28997 34961 ft 522 kts 56°
2026-04-25 14:26 11.11682 -66.22913 34957 ft 524 kts 57°
2026-04-25 14:27 11.15833 -66.16806 34975 ft 525 kts 57°
2026-04-25 14:27 11.19985 -66.10679 34970 ft 526 kts 57°
2026-04-25 14:28 11.24137 -66.04546 34961 ft 526 kts 57°
2026-04-25 14:28 11.28294 -65.98404 34974 ft 527 kts 57°
2026-04-25 14:29 11.32426 -65.92295 34974 ft 527 kts 57°
2026-04-25 14:29 11.36579 -65.86150 34961 ft 526 kts 56°
2026-04-25 14:30 11.40726 -65.80011 34971 ft 526 kts 56°
2026-04-25 14:30 11.46939 -65.70806 34961 ft 525 kts 57°
2026-04-25 14:31 11.51078 -65.64665 34973 ft 525 kts 57°
2026-04-25 14:31 11.55213 -65.58525 34976 ft 525 kts 57°
2026-04-25 14:32 11.59342 -65.52388 34960 ft 525 kts 57°
2026-04-25 14:32 11.63471 -65.46249 34963 ft 524 kts 57°
2026-04-25 14:33 11.67571 -65.40149 34972 ft 524 kts 56°
2026-04-25 14:33 11.71751 -65.34058 34976 ft 524 kts 56°
2026-04-25 14:34 11.75975 -65.27989 34959 ft 524 kts 56°
2026-04-25 14:34 11.80198 -65.21906 34975 ft 525 kts 56°
2026-04-25 14:35 11.84409 -65.15814 34967 ft 526 kts 56°
2026-04-25 14:35 11.88623 -65.09708 34966 ft 526 kts 56°
2026-04-25 14:36 11.92842 -65.03591 34975 ft 527 kts 56°
2026-04-25 14:36 11.97063 -64.97469 34982 ft 527 kts 56°
2026-04-25 14:37 12.01286 -64.91340 34963 ft 528 kts 56°
2026-04-25 14:37 12.05486 -64.85241 34963 ft 529 kts 56°
2026-04-25 14:38 12.09720 -64.79089 34979 ft 529 kts 56°
2026-04-25 14:38 12.13950 -64.72938 34983 ft 529 kts 56°
2026-04-25 14:39 12.18184 -64.66779 34966 ft 529 kts 56°
2026-04-25 14:39 12.22414 -64.60619 34965 ft 529 kts 56°
2026-04-25 14:40 12.26648 -64.54450 34968 ft 529 kts 56°
2026-04-25 14:40 12.30875 -64.48288 34970 ft 529 kts 56°
2026-04-25 14:41 12.35095 -64.42131 34968 ft 528 kts 56°
2026-04-25 14:41 12.39270 -64.35998 34969 ft 528 kts 56°
2026-04-25 14:42 12.42055 -64.31867 34983 ft 527 kts 57°
2026-04-25 14:42 12.47591 -64.23642 34985 ft 527 kts 57°
2026-04-25 14:43 12.51748 -64.17472 34970 ft 526 kts 57°
2026-04-25 14:43 12.55906 -64.11302 34973 ft 526 kts 57°
2026-04-25 14:44 12.60059 -64.05135 34978 ft 526 kts 57°
2026-04-25 14:44 12.64207 -63.98969 34971 ft 526 kts 56°
2026-04-25 14:45 12.68353 -63.92803 34990 ft 526 kts 56°
2026-04-25 14:45 12.72503 -63.86625 34976 ft 527 kts 57°
2026-04-25 14:46 12.76660 -63.80432 34978 ft 528 kts 57°
2026-04-25 14:46 12.80831 -63.74219 34980 ft 530 kts 56°
2026-04-25 14:47 12.83605 -63.70100 34982 ft 530 kts 56°
2026-04-25 14:47 12.89415 -63.61980 34997 ft 532 kts 51°
2026-04-25 14:48 12.94153 -63.56137 34977 ft 533 kts 51°
2026-04-25 14:48 12.98900 -63.50302 34978 ft 533 kts 51°
2026-04-25 14:49 13.03628 -63.44436 34991 ft 533 kts 51°
2026-04-25 14:49 13.08343 -63.38555 34975 ft 533 kts 52°
2026-04-25 14:50 13.13048 -63.32675 34983 ft 533 kts 52°
2026-04-25 14:50 13.17759 -63.26789 34983 ft 533 kts 52°
2026-04-25 14:51 13.22465 -63.20906 34984 ft 533 kts 52°
2026-04-25 14:51 13.27165 -63.15029 34983 ft 533 kts 52°
2026-04-25 14:52 13.31866 -63.09147 34992 ft 533 kts 52°
2026-04-25 14:52 13.35011 -63.05209 34977 ft 533 kts 52°
2026-04-25 14:53 13.41274 -62.97360 34981 ft 533 kts 52°
2026-04-25 14:53 13.45950 -62.91497 34984 ft 534 kts 52°
2026-04-25 14:54 13.50661 -62.85585 34985 ft 535 kts 52°
2026-04-25 14:54 13.55381 -62.79657 34983 ft 535 kts 52°
2026-04-25 14:55 13.60100 -62.73726 34981 ft 536 kts 52°
2026-04-25 14:55 13.64820 -62.67792 34987 ft 536 kts 52°
2026-04-25 14:56 13.69537 -62.61855 34986 ft 537 kts 52°
2026-04-25 14:56 13.74264 -62.55903 34992 ft 537 kts 52°
2026-04-25 14:57 13.78957 -62.49989 34984 ft 538 kts 52°
2026-04-25 14:57 13.83691 -62.44019 35003 ft 538 kts 52°
2026-04-25 14:58 13.88423 -62.38047 34987 ft 538 kts 52°
2026-04-25 14:58 13.93151 -62.32077 34996 ft 538 kts 52°
2026-04-25 14:59 13.97884 -62.26096 34988 ft 539 kts 52°
2026-04-25 14:59 14.02615 -62.20112 34986 ft 539 kts 52°
2026-04-25 15:00 14.07352 -62.14117 34992 ft 540 kts 52°
2026-04-25 15:00 14.12094 -62.08112 34994 ft 541 kts 52°
2026-04-25 15:01 14.16039 -62.03112 34992 ft 541 kts 52°
2026-04-25 15:01 14.20793 -61.97083 34993 ft 542 kts 52°
2026-04-25 15:02 14.25545 -61.91051 34985 ft 542 kts 52°
2026-04-25 15:02 14.30307 -61.85004 34986 ft 543 kts 52°
2026-04-25 15:03 14.35067 -61.78953 34992 ft 543 kts 52°
2026-04-25 15:03 14.39825 -61.72902 34989 ft 544 kts 52°
2026-04-25 15:04 14.44589 -61.66838 34989 ft 544 kts 52°
2026-04-25 15:04 14.49354 -61.60767 34992 ft 544 kts 52°
2026-04-25 15:05 14.54117 -61.54694 34990 ft 544 kts 52°
2026-04-25 15:06 14.61234 -61.45612 34989 ft 545 kts 52°
2026-04-25 15:06 14.65997 -61.39528 34992 ft 544 kts 52°
2026-04-25 15:07 14.70761 -61.33439 34985 ft 544 kts 52°
2026-04-25 15:07 14.75519 -61.27351 34998 ft 544 kts 52°
2026-04-25 15:08 14.80276 -61.21259 34994 ft 545 kts 52°
2026-04-25 15:08 14.85037 -61.15159 34991 ft 545 kts 52°
2026-04-25 15:09 14.89797 -61.09056 34999 ft 545 kts 52°
2026-04-25 15:09 14.96941 -60.99895 34998 ft 545 kts 52°
2026-04-25 15:10 15.01698 -60.93786 35011 ft 546 kts 52°
2026-04-25 15:11 15.08839 -60.84606 35007 ft 546 kts 52°
2026-04-25 15:11 15.13569 -60.78519 35003 ft 546 kts 52°
2026-04-25 15:12 15.20708 -60.69324 35001 ft 546 kts 52°
2026-04-25 15:12 15.24694 -60.64185 35004 ft 546 kts 52°
2026-04-25 15:13 15.32605 -60.53973 35006 ft 547 kts 51°
2026-04-25 15:14 15.37367 -60.47821 35001 ft 547 kts 51°
2026-04-25 15:14 15.42125 -60.41669 34999 ft 547 kts 52°
2026-04-25 15:15 15.46880 -60.35516 35005 ft 547 kts 52°
2026-04-25 15:15 15.51638 -60.29354 35006 ft 547 kts 52°
2026-04-25 15:16 15.56389 -60.23194 35011 ft 547 kts 51°
2026-04-25 15:16 15.63519 -60.13943 35000 ft 547 kts 51°
2026-04-25 15:17 15.70612 -60.04729 35009 ft 547 kts 51°
2026-04-25 15:18 15.75363 -59.98550 35009 ft 547 kts 52°
2026-04-25 15:18 15.82480 -59.89283 35008 ft 547 kts 52°
2026-04-25 15:19 15.86458 -59.84099 35008 ft 547 kts 51°
2026-04-25 15:19 15.91970 -59.76911 35009 ft 547 kts 51°
2026-04-25 15:20 15.96710 -59.70722 35008 ft 547 kts 51°
2026-04-25 15:20 16.01452 -59.64526 35008 ft 547 kts 51°
2026-04-25 15:21 16.06187 -59.58333 35011 ft 547 kts 51°
2026-04-25 15:21 16.10926 -59.52130 35008 ft 548 kts 51°
2026-04-25 15:22 16.15670 -59.45915 35009 ft 548 kts 51°
2026-04-25 15:22 16.20384 -59.39736 35009 ft 548 kts 51°
2026-04-25 15:23 16.25154 -59.33479 35009 ft 549 kts 51°
2026-04-25 15:23 16.29861 -59.27296 35020 ft 548 kts 51°
2026-04-25 15:24 16.34600 -59.21064 35010 ft 549 kts 51°
2026-04-25 15:24 16.38572 -59.15838 35007 ft 549 kts 51°
2026-04-25 15:25 16.44083 -59.08580 35015 ft 550 kts 51°
2026-04-25 15:25 16.48825 -59.02328 35009 ft 550 kts 51°
2026-04-25 15:26 16.53565 -58.96075 35014 ft 549 kts 51°
2026-04-25 15:26 16.58299 -58.89822 35011 ft 550 kts 51°
2026-04-25 15:27 16.63035 -58.83562 35017 ft 550 kts 51°
2026-04-25 15:28 16.70148 -58.74151 35018 ft 551 kts 51°
2026-04-25 15:28 16.74892 -58.67866 35015 ft 551 kts 51°
2026-04-25 15:29 16.79638 -58.61573 35020 ft 552 kts 51°
2026-04-25 15:29 16.84385 -58.55274 35020 ft 552 kts 51°
2026-04-25 15:30 16.89108 -58.49000 35016 ft 553 kts 51°
2026-04-25 15:30 16.93858 -58.42685 35018 ft 553 kts 51°
2026-04-25 15:31 16.98602 -58.36372 35019 ft 553 kts 51°
2026-04-25 15:31 17.03346 -58.30053 35030 ft 553 kts 51°
2026-04-25 15:32 17.08097 -58.23719 35024 ft 553 kts 51°
2026-04-25 15:32 17.12842 -58.17387 35022 ft 553 kts 51°
2026-04-25 15:33 17.19952 -58.07888 35022 ft 553 kts 51°
2026-04-25 15:33 17.24687 -58.01555 35022 ft 553 kts 51°
2026-04-25 15:34 17.29421 -57.95217 35031 ft 553 kts 51°
2026-04-25 15:34 17.32591 -57.90970 35027 ft 553 kts 51°
2026-04-25 15:35 17.41260 -57.79340 35028 ft 553 kts 51°
2026-04-25 15:36 17.48358 -57.69804 35030 ft 553 kts 51°
2026-04-25 15:36 17.53085 -57.63445 35031 ft 553 kts 51°
2026-04-25 15:37 17.57809 -57.57083 35032 ft 553 kts 51°
2026-04-25 15:37 17.62530 -57.50720 35032 ft 553 kts 51°
2026-04-25 15:38 17.67223 -57.44391 35035 ft 553 kts 51°
2026-04-25 15:38 17.71947 -57.38014 35031 ft 553 kts 51°
2026-04-25 15:39 17.76671 -57.31630 35035 ft 553 kts 51°
2026-04-25 15:39 17.81383 -57.25254 35030 ft 553 kts 51°
2026-04-25 15:40 17.84538 -57.20982 35032 ft 553 kts 51°
2026-04-25 15:40 17.90814 -57.12474 35039 ft 554 kts 51°
2026-04-25 15:41 17.95531 -57.06072 35037 ft 553 kts 51°
2026-04-25 15:41 18.00069 -56.99542 35040 ft 554 kts 57°
2026-04-25 15:42 18.03623 -56.92356 35041 ft 555 kts 65°
2026-04-25 15:42 18.06876 -56.85002 35034 ft 556 kts 65°
2026-04-25 15:43 18.10163 -56.77644 35040 ft 556 kts 65°
2026-04-25 15:43 18.13460 -56.70354 35036 ft 556 kts 65°
2026-04-25 15:44 18.16787 -56.63025 35034 ft 555 kts 65°
2026-04-25 15:44 18.20110 -56.55692 35033 ft 555 kts 65°
2026-04-25 15:45 18.23421 -56.48366 35037 ft 554 kts 65°
2026-04-25 15:45 18.25630 -56.43471 35034 ft 554 kts 65°
2026-04-25 15:46 18.30020 -56.33733 35037 ft 553 kts 65°
2026-04-25 15:46 18.33308 -56.26429 35031 ft 552 kts 65°
2026-04-25 15:47 18.36038 -56.20359 35027 ft 552 kts 65°
2026-04-25 15:47 18.39317 -56.13059 35039 ft 552 kts 65°
2026-04-25 15:48 18.42601 -56.05739 35040 ft 553 kts 65°
2026-04-25 15:48 18.45883 -55.98415 35044 ft 554 kts 65°
2026-04-25 15:49 18.49169 -55.91073 35035 ft 554 kts 65°
2026-04-25 15:49 18.52454 -55.83723 35039 ft 555 kts 65°
2026-04-25 15:50 18.55745 -55.76352 35041 ft 555 kts 65°
2026-04-25 15:50 18.59031 -55.68981 35048 ft 556 kts 65°
2026-04-25 15:51 18.61763 -55.62846 35037 ft 556 kts 65°
2026-04-25 15:51 18.65606 -55.54206 35042 ft 557 kts 65°
2026-04-25 15:52 18.68894 -55.46802 35044 ft 557 kts 65°
2026-04-25 15:52 18.72172 -55.39414 35038 ft 556 kts 65°
2026-04-25 15:53 18.75443 -55.32031 35043 ft 555 kts 65°
2026-04-25 15:53 18.78706 -55.24655 35029 ft 555 kts 65°
2026-04-25 15:54 18.81971 -55.17268 35045 ft 555 kts 65°
2026-04-25 15:54 18.85232 -55.09879 35046 ft 555 kts 65°
2026-04-25 15:55 18.88470 -55.02532 35043 ft 555 kts 65°
2026-04-25 15:55 18.91727 -54.95134 35053 ft 555 kts 65°
2026-04-25 15:56 18.94978 -54.87740 35046 ft 555 kts 65°
2026-04-25 15:56 18.98231 -54.80331 35042 ft 556 kts 65°
2026-04-25 15:57 19.01483 -54.72915 35060 ft 557 kts 65°
2026-04-25 15:57 19.04737 -54.65487 35049 ft 557 kts 65°
2026-04-25 15:58 19.07990 -54.58049 35054 ft 557 kts 65°
2026-04-25 15:58 19.11236 -54.50617 35042 ft 557 kts 65°
2026-04-25 15:59 19.14477 -54.43187 35066 ft 556 kts 65°
2026-04-25 15:59 19.17717 -54.35750 35046 ft 557 kts 65°
2026-04-25 16:00 19.19861 -54.30824 35053 ft 557 kts 65°
2026-04-25 16:00 19.24174 -54.20899 35068 ft 557 kts 65°
2026-04-25 16:01 19.27405 -54.13452 35049 ft 557 kts 65°
2026-04-25 16:01 19.30632 -54.06008 35062 ft 556 kts 65°
2026-04-25 16:02 19.33855 -53.98559 35049 ft 557 kts 65°
2026-04-25 16:02 19.37076 -53.91107 35058 ft 557 kts 65°
2026-04-25 16:03 19.40300 -53.83638 35058 ft 557 kts 65°
2026-04-25 16:03 19.43521 -53.76164 35057 ft 557 kts 65°
2026-04-25 16:04 19.46738 -53.68692 35063 ft 557 kts 65°
2026-04-25 16:04 19.49951 -53.61217 35054 ft 557 kts 65°
2026-04-25 16:05 19.53164 -53.53734 35049 ft 558 kts 65°
2026-04-25 16:06 19.57983 -53.42490 35058 ft 559 kts 65°
2026-04-25 16:06 19.61176 -53.35026 35055 ft 560 kts 65°
2026-04-25 16:07 19.64394 -53.27495 35057 ft 560 kts 65°
2026-04-25 16:07 19.67607 -53.19964 35058 ft 560 kts 65°
2026-04-25 16:08 19.70821 -53.12422 35055 ft 561 kts 65°
2026-04-25 16:08 19.74032 -53.04875 35062 ft 561 kts 65°
2026-04-25 16:09 19.77244 -52.97315 35059 ft 562 kts 65°
2026-04-25 16:09 19.80453 -52.89752 35057 ft 562 kts 65°
2026-04-25 16:10 19.83659 -52.82185 35057 ft 562 kts 65°
2026-04-25 16:10 19.86863 -52.74613 35056 ft 562 kts 65°
2026-04-25 16:11 19.90064 -52.67038 35057 ft 562 kts 65°
2026-04-25 16:11 19.93242 -52.59508 35061 ft 562 kts 65°
2026-04-25 16:12 19.96440 -52.51916 35051 ft 563 kts 65°
2026-04-25 16:12 19.99634 -52.44326 35061 ft 562 kts 65°
2026-04-25 16:13 20.02826 -52.36728 35059 ft 562 kts 65°
2026-04-25 16:13 20.06013 -52.29133 35059 ft 562 kts 65°
2026-04-25 16:14 20.09191 -52.21547 35061 ft 561 kts 65°
2026-04-25 16:14 20.12365 -52.13961 35056 ft 561 kts 65°
2026-04-25 16:15 20.15531 -52.06382 35060 ft 560 kts 65°
2026-04-25 16:15 20.18693 -51.98802 35075 ft 560 kts 65°
2026-04-25 16:16 20.21856 -51.91211 35054 ft 561 kts 65°
2026-04-25 16:16 20.25016 -51.83614 35059 ft 561 kts 65°
2026-04-25 16:17 20.28176 -51.76006 35064 ft 562 kts 65°
2026-04-25 16:17 20.31335 -51.68391 35060 ft 562 kts 65°
2026-04-25 16:18 20.34493 -51.60764 35060 ft 563 kts 65°
2026-04-25 16:18 20.37630 -51.53180 35059 ft 563 kts 65°
2026-04-25 16:19 20.40786 -51.45538 35061 ft 563 kts 65°
2026-04-25 16:19 20.43938 -51.37895 35060 ft 563 kts 65°
2026-04-25 16:20 20.48661 -51.26419 35059 ft 563 kts 65°
2026-04-25 16:21 20.53377 -51.14937 35060 ft 564 kts 65°
2026-04-25 16:21 20.56526 -51.07257 35061 ft 565 kts 65°
2026-04-25 16:22 20.59669 -50.99578 35066 ft 565 kts 65°
2026-04-25 16:22 20.62817 -50.91875 35063 ft 566 kts 65°
2026-04-25 16:23 20.65961 -50.84172 35064 ft 566 kts 65°
2026-04-25 16:23 20.69101 -50.76465 35065 ft 566 kts 65°
2026-04-25 16:24 20.72242 -50.68746 35066 ft 567 kts 65°
2026-04-25 16:24 20.75382 -50.61016 35064 ft 567 kts 65°
2026-04-25 16:25 20.78500 -50.53329 35068 ft 567 kts 65°
2026-04-25 16:25 20.81636 -50.45586 35062 ft 567 kts 65°
2026-04-25 16:26 20.84768 -50.37842 35063 ft 568 kts 65°
2026-04-25 16:26 20.87898 -50.30089 35069 ft 568 kts 65°
2026-04-25 16:27 20.91024 -50.22335 35065 ft 568 kts 65°
2026-04-25 16:27 20.94149 -50.14572 35066 ft 568 kts 65°
2026-04-25 16:28 20.97269 -50.06809 35065 ft 568 kts 65°
2026-04-25 16:28 21.00248 -49.98977 35061 ft 569 kts 70°
2026-04-25 16:29 21.02278 -49.90786 35073 ft 570 kts 76°
2026-04-25 16:29 21.04108 -49.82532 35070 ft 570 kts 76°
2026-04-25 16:30 21.05968 -49.74283 35064 ft 571 kts 76°
2026-04-25 16:30 21.07869 -49.66027 35070 ft 571 kts 75°
2026-04-25 16:31 21.09778 -49.57782 35080 ft 571 kts 75°
2026-04-25 16:31 21.11672 -49.49572 35069 ft 571 kts 75°
2026-04-25 16:32 21.13582 -49.41256 35064 ft 571 kts 75°
2026-04-25 16:32 21.15459 -49.33054 35065 ft 571 kts 75°
2026-04-25 16:33 21.17347 -49.24790 35065 ft 571 kts 75°
2026-04-25 16:33 21.19229 -49.16531 35065 ft 571 kts 75°
2026-04-25 16:34 21.21106 -49.08271 35088 ft 571 kts 75°
2026-04-25 16:34 21.22982 -49.00004 35066 ft 571 kts 75°
2026-04-25 16:35 21.24539 -48.93123 35068 ft 571 kts 75°
2026-04-25 16:35 21.26407 -48.84851 35065 ft 571 kts 75°
2026-04-25 16:36 21.28273 -48.76565 35062 ft 571 kts 75°
2026-04-25 16:36 21.30134 -48.68283 35069 ft 571 kts 76°
2026-04-25 16:37 21.31993 -48.59989 35082 ft 571 kts 75°
2026-04-25 16:37 21.33847 -48.51699 35071 ft 572 kts 75°
2026-04-25 16:38 21.35696 -48.43410 35065 ft 572 kts 76°
2026-04-25 16:38 21.37542 -48.35114 35073 ft 571 kts 75°
2026-04-25 16:39 21.39372 -48.26872 35074 ft 571 kts 76°
2026-04-25 16:39 21.41209 -48.18576 35072 ft 571 kts 75°
2026-04-25 16:40 21.43042 -48.10276 35071 ft 571 kts 76°
2026-04-25 16:40 21.44869 -48.01984 35071 ft 571 kts 76°
2026-04-25 16:41 21.46694 -47.93683 35069 ft 571 kts 76°
2026-04-25 16:41 21.49421 -47.81233 35073 ft 571 kts 76°
2026-04-25 16:42 21.51235 -47.72928 35075 ft 571 kts 76°
2026-04-25 16:42 21.53043 -47.64630 35085 ft 571 kts 76°
2026-04-25 16:43 21.54848 -47.56323 35070 ft 571 kts 76°
2026-04-25 16:43 21.56636 -47.48078 35077 ft 571 kts 76°
2026-04-25 16:44 21.58431 -47.39774 35072 ft 571 kts 76°
2026-04-25 16:44 21.60222 -47.31471 35073 ft 570 kts 76°
2026-04-25 16:45 21.62011 -47.23156 35077 ft 570 kts 76°
2026-04-25 16:45 21.63794 -47.14846 35080 ft 571 kts 76°
2026-04-25 16:46 21.65575 -47.06527 35077 ft 570 kts 76°
2026-04-25 16:46 21.67051 -46.99614 35080 ft 570 kts 76°
2026-04-25 16:47 21.69120 -46.89896 35075 ft 570 kts 76°
2026-04-25 16:47 21.70875 -46.81636 35076 ft 570 kts 76°
2026-04-25 16:48 21.72636 -46.73322 35087 ft 570 kts 76°
2026-04-25 16:48 21.74394 -46.65001 35079 ft 571 kts 76°
2026-04-25 16:49 21.76148 -46.56677 35077 ft 571 kts 76°
2026-04-25 16:49 21.77897 -46.48354 35080 ft 571 kts 76°
2026-04-25 16:50 21.79645 -46.40016 35081 ft 571 kts 76°
2026-04-25 16:50 21.81385 -46.31690 35096 ft 571 kts 76°
2026-04-25 16:51 21.83125 -46.23347 35082 ft 571 kts 76°
2026-04-25 16:51 21.84568 -46.16410 35078 ft 572 kts 76°
2026-04-25 16:52 21.86595 -46.06643 35084 ft 572 kts 76°
2026-04-25 16:52 21.88324 -45.98284 35081 ft 572 kts 76°
2026-04-25 16:53 21.90907 -45.85751 35098 ft 571 kts 76°
2026-04-25 16:54 21.92613 -45.77449 35085 ft 572 kts 76°
2026-04-25 16:54 21.94327 -45.69087 35085 ft 572 kts 76°
2026-04-25 16:55 21.96038 -45.60712 35087 ft 572 kts 76°
2026-04-25 16:55 21.97743 -45.52349 35089 ft 571 kts 76°
2026-04-25 16:56 21.99441 -45.43992 35095 ft 571 kts 76°
2026-04-25 16:56 22.01136 -45.35630 35085 ft 571 kts 76°
2026-04-25 16:57 22.02826 -45.27269 35088 ft 571 kts 76°
2026-04-25 16:57 22.04510 -45.18915 35083 ft 570 kts 76°
2026-04-25 16:58 22.06189 -45.10564 35088 ft 570 kts 76°
2026-04-25 16:58 22.07862 -45.02216 35099 ft 570 kts 76°
2026-04-25 16:59 22.09532 -44.93863 35096 ft 570 kts 76°
2026-04-25 16:59 22.11189 -44.85553 35090 ft 570 kts 76°
2026-04-25 17:00 22.12852 -44.77188 35097 ft 570 kts 76°
2026-04-25 17:00 22.14508 -44.68835 35098 ft 570 kts 76°
2026-04-25 17:01 22.16161 -44.60474 35102 ft 570 kts 76°
2026-04-25 17:01 22.17810 -44.52108 35097 ft 570 kts 76°
2026-04-25 17:02 22.19454 -44.43749 35097 ft 570 kts 76°
2026-04-25 17:02 22.21093 -44.35384 35099 ft 569 kts 76°
2026-04-25 17:03 22.22729 -44.27018 35099 ft 569 kts 76°
2026-04-25 17:03 22.24360 -44.18648 35100 ft 569 kts 76°
2026-04-25 17:04 22.25986 -44.10282 35101 ft 569 kts 76°
2026-04-25 17:04 22.27609 -44.01910 35108 ft 570 kts 76°
2026-04-25 17:05 22.29228 -43.93531 35090 ft 570 kts 76°
2026-04-25 17:05 22.31649 -43.80959 35104 ft 570 kts 76°
2026-04-25 17:06 22.33259 -43.72568 35099 ft 571 kts 76°
2026-04-25 17:06 22.34866 -43.64166 35102 ft 571 kts 76°
2026-04-25 17:07 22.36459 -43.55816 35098 ft 571 kts 76°
2026-04-25 17:07 22.38059 -43.47399 35098 ft 572 kts 76°
2026-04-25 17:08 22.39655 -43.38983 35102 ft 572 kts 76°
2026-04-25 17:08 22.41247 -43.30560 35099 ft 572 kts 76°
2026-04-25 17:09 22.42836 -43.22134 35098 ft 572 kts 76°
2026-04-25 17:09 22.44416 -43.13721 35098 ft 571 kts 76°
2026-04-25 17:10 22.45994 -43.05303 35100 ft 571 kts 76°
2026-04-25 17:10 22.47565 -42.96894 35102 ft 571 kts 76°
2026-04-25 17:11 22.49121 -42.88539 35099 ft 571 kts 76°
2026-04-25 17:11 22.50684 -42.80119 35105 ft 571 kts 76°
2026-04-25 17:12 22.52243 -42.71701 35101 ft 571 kts 76°
2026-04-25 17:12 22.53797 -42.63280 35102 ft 571 kts 76°
2026-04-25 17:13 22.54835 -42.57644 35104 ft 571 kts 76°
2026-04-25 17:13 22.56896 -42.46415 35099 ft 572 kts 76°
2026-04-25 17:14 22.58440 -42.37973 35106 ft 572 kts 76°
2026-04-25 17:14 22.59979 -42.29527 35103 ft 572 kts 76°
2026-04-25 17:15 22.61515 -42.21077 35100 ft 572 kts 76°
2026-04-25 17:15 22.63036 -42.12681 35101 ft 572 kts 76°
2026-04-25 17:16 22.64563 -42.04227 35101 ft 572 kts 76°
2026-04-25 17:16 22.66088 -41.95760 35111 ft 572 kts 76°
2026-04-25 17:17 22.67606 -41.87302 35103 ft 573 kts 76°
2026-04-25 17:17 22.69122 -41.78830 35103 ft 573 kts 76°
2026-04-25 17:18 22.70633 -41.70359 35109 ft 573 kts 76°
2026-04-25 17:18 22.72140 -41.61885 35105 ft 573 kts 76°
2026-04-25 17:19 22.73643 -41.53405 35102 ft 573 kts 76°
2026-04-25 17:19 22.75139 -41.44931 35107 ft 573 kts 76°
2026-04-25 17:20 22.76630 -41.36465 35103 ft 573 kts 76°
2026-04-25 17:20 22.78119 -41.27983 35104 ft 573 kts 76°
2026-04-25 17:21 22.79604 -41.19501 35106 ft 573 kts 76°
2026-04-25 17:21 22.81084 -41.11015 35111 ft 573 kts 76°
2026-04-25 17:22 22.82061 -41.05397 35108 ft 573 kts 76°
2026-04-25 17:22 22.84029 -40.94042 35108 ft 573 kts 76°
2026-04-25 17:23 22.85249 -40.86980 35106 ft 573 kts 76°
2026-04-25 17:23 22.86713 -40.78480 35107 ft 574 kts 76°
2026-04-25 17:24 22.88411 -40.68586 35118 ft 574 kts 76°
2026-04-25 17:24 22.89631 -40.61453 35109 ft 574 kts 76°
2026-04-25 17:25 22.91084 -40.52933 35115 ft 575 kts 76°
2026-04-25 17:25 22.92525 -40.44454 35110 ft 575 kts 76°
2026-04-25 17:26 22.93981 -40.35856 35109 ft 576 kts 76°
2026-04-25 17:26 22.95415 -40.27363 35105 ft 576 kts 76°
2026-04-25 17:27 22.96854 -40.18809 35105 ft 577 kts 76°
2026-04-25 17:27 22.98057 -40.11633 35109 ft 577 kts 76°
2026-04-25 17:28 22.99177 -40.01575 35112 ft 582 kts 88°
2026-04-25 17:28 22.98439 -39.92809 35095 ft 584 kts 101°
2026-04-25 17:29 22.96419 -39.84287 35103 ft 583 kts 105°
2026-04-25 17:29 22.94290 -39.75793 35109 ft 584 kts 105°
2026-04-25 17:30 22.92215 -39.67274 35106 ft 584 kts 104°
2026-04-25 17:30 22.90182 -39.58739 35108 ft 585 kts 104°
2026-04-25 17:31 22.88153 -39.50203 35112 ft 585 kts 104°
2026-04-25 17:31 22.86110 -39.41656 35098 ft 585 kts 104°
2026-04-25 17:32 22.84062 -39.33134 35107 ft 584 kts 104°
2026-04-25 17:32 22.82008 -39.24611 35107 ft 584 kts 104°
2026-04-25 17:33 22.79950 -39.16087 35108 ft 584 kts 104°
2026-04-25 17:33 22.77888 -39.07572 35109 ft 585 kts 104°
2026-04-25 17:34 22.75832 -38.99098 35090 ft 585 kts 104°
2026-04-25 17:34 22.73760 -38.90578 35113 ft 584 kts 105°
2026-04-25 17:35 22.71686 -38.82074 35103 ft 584 kts 105°
2026-04-25 17:35 22.69608 -38.73574 35102 ft 583 kts 105°
2026-04-25 17:36 22.67528 -38.65088 35116 ft 583 kts 105°
2026-04-25 17:36 22.65443 -38.56602 35107 ft 584 kts 105°
2026-04-25 17:37 22.63352 -38.48112 35101 ft 583 kts 105°
2026-04-25 17:37 22.61256 -38.39622 35116 ft 583 kts 105°
2026-04-25 17:38 22.59514 -38.32581 35094 ft 583 kts 105°
2026-04-25 17:38 22.57059 -38.22683 35108 ft 583 kts 105°
2026-04-25 17:39 22.54968 -38.14275 35100 ft 583 kts 105°
2026-04-25 17:39 22.52857 -38.05805 35106 ft 583 kts 105°
2026-04-25 17:40 22.50739 -37.97328 35112 ft 584 kts 105°
2026-04-25 17:40 22.48615 -37.88850 35099 ft 585 kts 105°
2026-04-25 17:41 22.46484 -37.80359 35108 ft 585 kts 105°
2026-04-25 17:41 22.44347 -37.71870 35106 ft 586 kts 105°
2026-04-25 17:42 22.42200 -37.63360 35106 ft 586 kts 105°
2026-04-25 17:42 22.40048 -37.54850 35082 ft 587 kts 105°
2026-04-25 17:43 22.37896 -37.46359 35118 ft 586 kts 105°
2026-04-25 17:43 22.35737 -37.37862 35104 ft 586 kts 105°
2026-04-25 17:44 22.33588 -37.29424 35099 ft 586 kts 105°
2026-04-25 17:44 22.31423 -37.20942 35111 ft 586 kts 105°
2026-04-25 17:45 22.29970 -37.15262 35104 ft 587 kts 105°
2026-04-25 17:45 22.27073 -37.03961 35092 ft 587 kts 105°
2026-04-25 17:46 22.24893 -36.95482 35100 ft 586 kts 105°
2026-04-25 17:46 22.22709 -36.87005 35111 ft 586 kts 105°
2026-04-25 17:47 22.20522 -36.78539 35106 ft 586 kts 105°
2026-04-25 17:47 22.18331 -36.70074 35107 ft 586 kts 105°
2026-04-25 17:48 22.15031 -36.57362 35103 ft 587 kts 105°
2026-04-25 17:49 22.12826 -36.48893 35104 ft 586 kts 105°
2026-04-25 17:49 22.10633 -36.40490 35094 ft 586 kts 105°
2026-04-25 17:50 22.08422 -36.32037 35105 ft 585 kts 105°
2026-04-25 17:50 22.06211 -36.23599 35103 ft 585 kts 105°
2026-04-25 17:51 22.03995 -36.15164 35113 ft 585 kts 105°
2026-04-25 17:51 22.01775 -36.06728 35104 ft 585 kts 105°
2026-04-25 17:52 21.99480 -35.98319 35105 ft 585 kts 109°
2026-04-25 17:52 21.96627 -35.90122 35107 ft 584 kts 111°
2026-04-25 17:53 21.93683 -35.81958 35102 ft 584 kts 111°
2026-04-25 17:53 21.90767 -35.73795 35107 ft 584 kts 111°
2026-04-25 17:54 21.87874 -35.65610 35108 ft 585 kts 111°
2026-04-25 17:54 21.84981 -35.57414 35092 ft 585 kts 111°
2026-04-25 17:55 21.82106 -35.49289 35112 ft 584 kts 111°
2026-04-25 17:55 21.79203 -35.41112 35100 ft 585 kts 111°
2026-04-25 17:56 21.76296 -35.32944 35101 ft 585 kts 111°
2026-04-25 17:56 21.73384 -35.24771 35104 ft 585 kts 111°
2026-04-25 17:57 21.70469 -35.16607 35104 ft 585 kts 111°
2026-04-25 17:57 21.67548 -35.08437 35097 ft 585 kts 111°
2026-04-25 17:58 21.64627 -35.00284 35098 ft 584 kts 111°
2026-04-25 17:58 21.61697 -34.92118 35102 ft 585 kts 111°
2026-04-25 17:59 21.58785 -34.84020 35098 ft 585 kts 111°
2026-04-25 17:59 21.55851 -34.75873 35098 ft 585 kts 111°
2026-04-25 18:00 21.52893 -34.67672 35083 ft 585 kts 111°
2026-04-25 18:00 21.49968 -34.59581 35096 ft 585 kts 111°
2026-04-25 18:01 21.47025 -34.51450 35099 ft 584 kts 111°
2026-04-25 18:01 21.44077 -34.43321 35102 ft 585 kts 111°
2026-04-25 18:02 21.41121 -34.35184 35097 ft 585 kts 111°
2026-04-25 18:02 21.38159 -34.27046 35095 ft 585 kts 111°
2026-04-25 18:03 21.35196 -34.18919 35091 ft 585 kts 111°
2026-04-25 18:03 21.32227 -34.10789 35092 ft 584 kts 112°
2026-04-25 18:04 21.29260 -34.02678 35092 ft 584 kts 112°
2026-04-25 18:04 21.26290 -33.94573 35091 ft 584 kts 112°
2026-04-25 18:05 21.23317 -33.86473 35088 ft 584 kts 112°
2026-04-25 18:05 21.20341 -33.78378 35090 ft 584 kts 112°
2026-04-25 18:06 21.17364 -33.70296 35080 ft 582 kts 112°
2026-04-25 18:06 21.14388 -33.62230 35086 ft 581 kts 112°
2026-04-25 18:07 21.11431 -33.54228 35088 ft 581 kts 112°
2026-04-25 18:07 21.08452 -33.46181 35089 ft 581 kts 112°
2026-04-25 18:08 21.05472 -33.38144 35089 ft 581 kts 112°
2026-04-25 18:08 21.02484 -33.30097 35086 ft 581 kts 112°
2026-04-25 18:09 20.99489 -33.22048 35088 ft 582 kts 112°
2026-04-25 18:09 20.96491 -33.14002 35097 ft 583 kts 112°
2026-04-25 18:10 20.93483 -33.05945 35086 ft 584 kts 112°
2026-04-25 18:10 20.90465 -32.97872 35087 ft 585 kts 112°
2026-04-25 18:11 20.87442 -32.89801 35085 ft 585 kts 112°
2026-04-25 18:11 20.84409 -32.81715 35066 ft 586 kts 112°
2026-04-25 18:12 20.81889 -32.75006 35071 ft 585 kts 112°
2026-04-25 18:12 20.78855 -32.66943 35077 ft 584 kts 112°
2026-04-25 18:13 20.75822 -32.58896 35085 ft 583 kts 112°
2026-04-25 18:13 20.72785 -32.50850 35076 ft 584 kts 112°
2026-04-25 18:14 20.68224 -32.38792 35076 ft 584 kts 112°
2026-04-25 18:14 20.65177 -32.30754 35080 ft 583 kts 112°
2026-04-25 18:15 20.62131 -32.22729 35071 ft 583 kts 112°
2026-04-25 18:15 20.59082 -32.14712 35075 ft 583 kts 112°
2026-04-25 18:16 20.56033 -32.06706 35078 ft 582 kts 112°
2026-04-25 18:17 20.51449 -31.94692 35070 ft 583 kts 112°
2026-04-25 18:17 20.48386 -31.86683 35046 ft 583 kts 112°
2026-04-25 18:18 20.45344 -31.78736 35072 ft 582 kts 112°
2026-04-25 18:18 20.42279 -31.70758 35064 ft 581 kts 113°
2026-04-25 18:19 20.38948 -31.62918 35064 ft 580 kts 116°
2026-04-25 18:19 20.35435 -31.55161 35061 ft 580 kts 117°
2026-04-25 18:20 20.31952 -31.47410 35067 ft 580 kts 116°
2026-04-25 18:20 20.28514 -31.39631 35050 ft 581 kts 116°
2026-04-25 18:21 20.25094 -31.31850 35063 ft 580 kts 116°
2026-04-25 18:21 20.21669 -31.24075 35059 ft 580 kts 116°
2026-04-25 18:22 20.18237 -31.16310 35061 ft 579 kts 116°
2026-04-25 18:22 20.14803 -31.08557 35058 ft 579 kts 116°
2026-04-25 18:23 20.11367 -31.00810 35059 ft 579 kts 116°
2026-04-25 18:23 20.07928 -30.93066 35050 ft 578 kts 116°
2026-04-25 18:24 20.04491 -30.85337 35060 ft 578 kts 116°
2026-04-25 18:24 20.01052 -30.77614 35057 ft 578 kts 116°
2026-04-25 18:25 19.97632 -30.69945 35058 ft 578 kts 116°
2026-04-25 18:25 19.94185 -30.62226 35059 ft 578 kts 116°
2026-04-25 18:26 19.90736 -30.54513 35056 ft 578 kts 116°
2026-04-25 18:26 19.87284 -30.46806 35045 ft 577 kts 116°
2026-04-25 18:27 19.83833 -30.39111 35055 ft 576 kts 116°
2026-04-25 18:27 19.80381 -30.31423 35053 ft 576 kts 116°
2026-04-25 18:28 19.76931 -30.23751 35053 ft 576 kts 116°
2026-04-25 18:28 19.73478 -30.16084 35051 ft 576 kts 116°
2026-04-25 18:29 19.68291 -30.04584 35036 ft 576 kts 116°
2026-04-25 18:30 19.61373 -29.89286 35051 ft 575 kts 116°
2026-04-25 18:30 19.57910 -29.81642 35053 ft 575 kts 116°
2026-04-25 18:31 19.54468 -29.74056 35048 ft 575 kts 116°
2026-04-25 18:31 19.50974 -29.66366 35043 ft 575 kts 116°
2026-04-25 18:32 19.47519 -29.58771 35097 ft 579 kts 116°
2026-04-25 18:32 19.45782 -29.54956 35692 ft 570 kts 116°
2026-04-25 18:32 19.44069 -29.51197 36230 ft 565 kts 117°
2026-04-25 18:33 19.42360 -29.47448 36542 ft 565 kts 117°
2026-04-25 18:33 19.40650 -29.43702 36784 ft 565 kts 117°
2026-04-25 18:33 19.38937 -29.39951 36964 ft 566 kts 117°
2026-04-25 18:33 19.37219 -29.36192 37008 ft 568 kts 117°
2026-04-25 18:34 19.33785 -29.28685 37038 ft 565 kts 117°
2026-04-25 18:34 19.30361 -29.21207 37040 ft 563 kts 117°
2026-04-25 18:35 19.26940 -29.13746 37041 ft 562 kts 117°
2026-04-25 18:35 19.23522 -29.06302 37035 ft 561 kts 117°
2026-04-25 18:36 19.20110 -28.98881 37035 ft 561 kts 117°
2026-04-25 18:36 19.16697 -28.91467 37039 ft 561 kts 117°
2026-04-25 18:37 19.13299 -28.84095 37035 ft 561 kts 117°
2026-04-25 18:37 19.09876 -28.76679 37037 ft 561 kts 117°
2026-04-25 18:38 19.06444 -28.69253 37033 ft 562 kts 117°
2026-04-25 18:38 19.03011 -28.61834 37033 ft 562 kts 117°
2026-04-25 18:39 18.99568 -28.54403 37031 ft 563 kts 117°
2026-04-25 18:39 18.96122 -28.46975 37030 ft 564 kts 117°
2026-04-25 18:40 18.92670 -28.39542 37026 ft 562 kts 117°
2026-04-25 18:40 18.89261 -28.32209 37023 ft 552 kts 117°
2026-04-25 18:41 18.85877 -28.24942 37027 ft 551 kts 117°
2026-04-25 18:41 18.82498 -28.17697 37026 ft 550 kts 117°
2026-04-25 18:42 18.80240 -28.12858 37022 ft 549 kts 117°
2026-04-25 18:42 18.75753 -28.03255 37027 ft 547 kts 117°
2026-04-25 18:43 18.72384 -27.96057 37029 ft 547 kts 117°
2026-04-25 18:43 18.69013 -27.88862 37027 ft 547 kts 117°
2026-04-25 18:44 18.65665 -27.81725 37025 ft 547 kts 117°
2026-04-25 18:44 18.62286 -27.74529 37024 ft 547 kts 117°
2026-04-25 18:45 18.58904 -27.67338 37013 ft 548 kts 117°
2026-04-25 18:45 18.55521 -27.60152 37024 ft 547 kts 117°
2026-04-25 18:46 18.52138 -27.52974 37020 ft 546 kts 117°
2026-04-25 18:46 18.48757 -27.45810 37025 ft 546 kts 117°
2026-04-25 18:47 18.45373 -27.38646 37017 ft 546 kts 117°
2026-04-25 18:47 18.41987 -27.31489 37020 ft 546 kts 117°
2026-04-25 18:48 18.38742 -27.24261 37024 ft 545 kts 116°
2026-04-25 18:48 18.35463 -27.17085 37002 ft 538 kts 118°
2026-04-25 18:49 18.32037 -27.10161 37014 ft 532 kts 119°
2026-04-25 18:49 18.28558 -27.03294 37021 ft 531 kts 120°
2026-04-25 18:50 18.25109 -26.96468 37017 ft 532 kts 119°
2026-04-25 18:50 18.21653 -26.89588 37017 ft 532 kts 119°
2026-04-25 18:51 18.19340 -26.84978 37023 ft 532 kts 119°
2026-04-25 18:51 18.14739 -26.75817 37013 ft 533 kts 119°
2026-04-25 18:52 18.11275 -26.68931 37009 ft 532 kts 119°
2026-04-25 18:52 18.07810 -26.62054 37017 ft 532 kts 119°
2026-04-25 18:53 18.04345 -26.55184 37011 ft 532 kts 120°
2026-04-25 18:53 18.00900 -26.48361 37013 ft 532 kts 120°
2026-04-25 18:54 17.95699 -26.38073 37007 ft 531 kts 120°
2026-04-25 18:55 17.92229 -26.31220 37005 ft 531 kts 120°
2026-04-25 18:55 17.88760 -26.24374 37000 ft 531 kts 120°
2026-04-25 18:56 17.85292 -26.17538 37010 ft 530 kts 120°
2026-04-25 18:56 17.81826 -26.10715 37003 ft 529 kts 120°
2026-04-25 18:57 17.78362 -26.03903 37005 ft 528 kts 120°
2026-04-25 18:57 17.74901 -25.97101 37002 ft 528 kts 120°
2026-04-25 18:58 17.71440 -25.90310 37003 ft 528 kts 120°
2026-04-25 18:58 17.66248 -25.80134 37001 ft 527 kts 120°
2026-04-25 18:59 17.59329 -25.66597 37000 ft 526 kts 120°
2026-04-25 19:00 17.54722 -25.57599 36996 ft 526 kts 120°
2026-04-25 19:01 17.49530 -25.47476 36997 ft 526 kts 120°
2026-04-25 19:01 17.46068 -25.40733 36993 ft 526 kts 120°
2026-04-25 19:02 17.40865 -25.30614 36995 ft 526 kts 120°
2026-04-25 19:03 17.36251 -25.21652 36994 ft 525 kts 120°
2026-04-25 19:03 17.32195 -25.13784 36994 ft 525 kts 120°
2026-04-25 19:04 17.26989 -25.03701 36992 ft 525 kts 120°
2026-04-25 19:05 17.20034 -24.90253 36989 ft 525 kts 120°
2026-04-25 19:06 17.16555 -24.83535 36992 ft 525 kts 120°
2026-04-25 19:06 17.11358 -24.73514 36991 ft 524 kts 120°
2026-04-25 19:07 17.06142 -24.63473 36977 ft 524 kts 120°
2026-04-25 19:08 17.00931 -24.53455 36980 ft 523 kts 120°
2026-04-25 19:09 16.94568 -24.41243 36963 ft 522 kts 121°
2026-04-25 19:10 16.88764 -24.30123 36956 ft 522 kts 121°
2026-04-25 19:10 16.85289 -24.23474 36970 ft 522 kts 121°
2026-04-25 19:11 16.81813 -24.16829 36966 ft 521 kts 121°
2026-04-25 19:11 16.78336 -24.10190 36975 ft 521 kts 121°
2026-04-25 19:12 16.74860 -24.03558 36972 ft 521 kts 121°
2026-04-25 19:12 16.71378 -23.96923 36978 ft 521 kts 121°
2026-04-25 19:13 16.67899 -23.90299 36973 ft 521 kts 121°
2026-04-25 19:13 16.64414 -23.83670 36970 ft 521 kts 121°
2026-04-25 19:14 16.60951 -23.77090 36970 ft 521 kts 121°
2026-04-25 19:14 16.57466 -23.70471 36965 ft 521 kts 121°
2026-04-25 19:15 16.53974 -23.63849 36961 ft 521 kts 121°
2026-04-25 19:15 16.50482 -23.57232 36960 ft 521 kts 121°
2026-04-25 19:16 16.46990 -23.50622 36959 ft 521 kts 121°
2026-04-25 19:16 16.43496 -23.44014 36954 ft 521 kts 121°
2026-04-25 19:17 16.40002 -23.37412 36952 ft 521 kts 121°
2026-04-25 19:17 16.36504 -23.30809 36946 ft 520 kts 121°
2026-04-25 19:18 16.33009 -23.24216 36951 ft 520 kts 121°
2026-04-25 19:18 16.29514 -23.17633 36952 ft 519 kts 121°
2026-04-25 19:19 16.26025 -23.11065 36953 ft 518 kts 121°
2026-04-25 19:19 16.22535 -23.04501 36951 ft 518 kts 121°
2026-04-25 19:20 16.19046 -22.97945 36955 ft 518 kts 121°
2026-04-25 19:20 16.15554 -22.91391 36939 ft 518 kts 121°
2026-04-25 19:21 16.12055 -22.84829 36942 ft 518 kts 121°
2026-04-25 19:21 16.06830 -22.75043 36934 ft 518 kts 121°
2026-04-25 19:22 16.03331 -22.68495 36957 ft 518 kts 121°
2026-04-25 19:23 15.98085 -22.58690 36946 ft 517 kts 121°
2026-04-25 19:23 15.92838 -22.48897 36946 ft 517 kts 121°
2026-04-25 19:24 15.89341 -22.42379 36960 ft 516 kts 121°
2026-04-25 19:25 15.82338 -22.29343 36951 ft 516 kts 121°
2026-04-25 19:25 15.78830 -22.22820 36951 ft 516 kts 121°
2026-04-25 19:26 15.75328 -22.16314 36943 ft 516 kts 121°
2026-04-25 19:26 15.71826 -22.09815 36943 ft 516 kts 121°
2026-04-25 19:27 15.68912 -22.04412 36948 ft 516 kts 121°
2026-04-25 19:27 15.64814 -21.96820 36944 ft 516 kts 121°
2026-04-25 19:28 15.61308 -21.90330 36939 ft 516 kts 121°
2026-04-25 19:28 15.57798 -21.83839 36943 ft 516 kts 121°
2026-04-25 19:29 15.54288 -21.77354 36937 ft 515 kts 121°
2026-04-25 19:29 15.50800 -21.70915 36934 ft 515 kts 121°
2026-04-25 19:30 15.47290 -21.64440 36928 ft 515 kts 121°
2026-04-25 19:30 15.43781 -21.57974 36939 ft 515 kts 121°
2026-04-25 19:31 15.40269 -21.51508 36928 ft 515 kts 121°
2026-04-25 19:31 15.36755 -21.45045 36936 ft 515 kts 121°
2026-04-25 19:32 15.33240 -21.38585 36931 ft 515 kts 121°
2026-04-25 19:32 15.30887 -21.34263 36928 ft 515 kts 121°
2026-04-25 19:33 15.26206 -21.25673 36918 ft 514 kts 121°
2026-04-25 19:33 15.22693 -21.19232 36932 ft 513 kts 121°
2026-04-25 19:34 15.19181 -21.12800 36930 ft 513 kts 121°
2026-04-25 19:34 15.15668 -21.06370 36925 ft 513 kts 121°
2026-04-25 19:35 15.12159 -20.99953 36929 ft 512 kts 121°
2026-04-25 19:35 15.08647 -20.93537 36927 ft 512 kts 121°
2026-04-25 19:36 15.05132 -20.87121 36928 ft 512 kts 121°
2026-04-25 19:36 15.01617 -20.80709 36923 ft 512 kts 121°
2026-04-25 19:37 14.98102 -20.74304 36930 ft 512 kts 121°
2026-04-25 19:37 14.94614 -20.67952 36921 ft 511 kts 121°
2026-04-25 19:38 14.91106 -20.61568 36919 ft 510 kts 121°
2026-04-25 19:38 14.87598 -20.55192 36922 ft 510 kts 121°
2026-04-25 19:39 14.84092 -20.48823 36916 ft 509 kts 121°
2026-04-25 19:39 14.80587 -20.42461 36921 ft 509 kts 121°
2026-04-25 19:40 14.77085 -20.36109 36914 ft 509 kts 121°
2026-04-25 19:40 14.73580 -20.29756 36911 ft 509 kts 121°
2026-04-25 19:41 14.70082 -20.23405 36912 ft 508 kts 120°
2026-04-25 19:41 14.68054 -20.18990 36910 ft 509 kts 112°
2026-04-25 19:42 14.65093 -20.09748 36910 ft 509 kts 108°
2026-04-25 19:42 14.62922 -20.02790 36905 ft 509 kts 109°
2026-04-25 19:43 14.60713 -19.95839 36912 ft 509 kts 109°
2026-04-25 19:43 14.58486 -19.88904 36909 ft 509 kts 109°
2026-04-25 19:44 14.56252 -19.81963 36906 ft 509 kts 109°
2026-04-25 19:44 14.54016 -19.75017 36904 ft 509 kts 109°
2026-04-25 19:45 14.51781 -19.68078 36908 ft 510 kts 109°
2026-04-25 19:45 14.49559 -19.61184 36902 ft 510 kts 109°
2026-04-25 19:46 14.47318 -19.54242 36903 ft 510 kts 109°
2026-04-25 19:46 14.45076 -19.47303 36897 ft 510 kts 109°
2026-04-25 19:47 14.42835 -19.40375 36908 ft 509 kts 109°
2026-04-25 19:47 14.40969 -19.34614 36896 ft 508 kts 109°
2026-04-25 19:48 14.38729 -19.27703 36897 ft 508 kts 109°
2026-04-25 19:48 14.36487 -19.20792 36898 ft 507 kts 109°
2026-04-25 19:49 14.34611 -19.15017 36895 ft 507 kts 109°
2026-04-25 19:49 14.32007 -19.07010 36896 ft 506 kts 109°
2026-04-25 19:50 14.28646 -18.96688 36883 ft 506 kts 109°
2026-04-25 19:51 14.26401 -18.89805 36888 ft 506 kts 109°
2026-04-25 19:51 14.24157 -18.82931 36882 ft 506 kts 109°
2026-04-25 19:52 14.21909 -18.76050 36880 ft 506 kts 109°
2026-04-25 19:52 14.19659 -18.69172 36773 ft 507 kts 109°
2026-04-25 19:52 14.18527 -18.65715 36371 ft 511 kts 109°
2026-04-25 19:53 14.17387 -18.62236 35908 ft 515 kts 109°
2026-04-25 19:53 14.16236 -18.58726 35510 ft 518 kts 108°
2026-04-25 19:53 14.15083 -18.55207 35137 ft 519 kts 108°
2026-04-25 19:53 14.13923 -18.51673 34770 ft 521 kts 108°
2026-04-25 19:54 14.12763 -18.48138 34369 ft 521 kts 108°
2026-04-25 19:54 14.11596 -18.44585 33387 ft 526 kts 108°
2026-04-25 19:54 14.10419 -18.41005 32390 ft 528 kts 108°
2026-04-25 19:54 14.09641 -18.38637 31721 ft 529 kts 108°
2026-04-25 19:55 14.08057 -18.33822 30357 ft 532 kts 107°
2026-04-25 19:55 14.06876 -18.30235 29628 ft 526 kts 107°
2026-04-25 19:55 14.05703 -18.26674 28830 ft 521 kts 107°
2026-04-25 19:55 14.04548 -18.23170 28115 ft 514 kts 107°
2026-04-25 19:56 14.03405 -18.19703 27421 ft 509 kts 108°
2026-04-25 19:56 14.02289 -18.16318 26756 ft 503 kts 108°
2026-04-25 19:56 14.01173 -18.12933 26347 ft 492 kts 108°
2026-04-25 19:56 14.00091 -18.09658 26258 ft 475 kts 108°
2026-04-25 19:57 13.99043 -18.06488 26162 ft 459 kts 108°
2026-04-25 19:57 13.98201 -18.03404 25994 ft 440 kts 96°
2026-04-25 19:57 13.98274 -18.00320 25747 ft 426 kts 77°
2026-04-25 19:57 13.99096 -17.97440 25477 ft 415 kts 65°
2026-04-25 19:58 14.00474 -17.94884 25098 ft 403 kts 51°
2026-04-25 19:58 14.02147 -17.92602 24851 ft 395 kts 50°
2026-04-25 19:58 14.03810 -17.90385 24671 ft 387 kts 50°
2026-04-25 19:58 14.05439 -17.88215 24462 ft 379 kts 50°
2026-04-25 19:59 14.07032 -17.86081 24206 ft 374 kts 50°
2026-04-25 19:59 14.08608 -17.83957 23841 ft 373 kts 50°
2026-04-25 19:59 14.10174 -17.81834 23450 ft 372 kts 50°
2026-04-25 19:59 14.11735 -17.79709 23004 ft 371 kts 51°
2026-04-25 20:00 14.13287 -17.77589 22583 ft 369 kts 51°
2026-04-25 20:00 14.14309 -17.76191 22333 ft 368 kts 50°
2026-04-25 20:00 14.16363 -17.73378 21768 ft 366 kts 51°
2026-04-25 20:00 14.17892 -17.71283 21355 ft 365 kts 50°
2026-04-25 20:01 14.20911 -17.67144 20564 ft 362 kts 51°
2026-04-25 20:01 14.22419 -17.65076 20164 ft 360 kts 51°
2026-04-25 20:01 14.23921 -17.63016 19785 ft 358 kts 51°
2026-04-25 20:02 14.25418 -17.60962 19395 ft 357 kts 51°
2026-04-25 20:02 14.26906 -17.58919 19006 ft 356 kts 51°
2026-04-25 20:02 14.28388 -17.56884 18630 ft 354 kts 51°
2026-04-25 20:02 14.29866 -17.54855 18256 ft 353 kts 51°
2026-04-25 20:03 14.31337 -17.52836 17842 ft 351 kts 51°
2026-04-25 20:03 14.32798 -17.50828 17432 ft 349 kts 51°
2026-04-25 20:03 14.34252 -17.48830 17049 ft 347 kts 51°
2026-04-25 20:03 14.35693 -17.46849 16650 ft 345 kts 51°
2026-04-25 20:04 14.37129 -17.44875 16248 ft 343 kts 51°
2026-04-25 20:04 14.38555 -17.42915 15903 ft 341 kts 51°
2026-04-25 20:04 14.39976 -17.40960 15854 ft 341 kts 51°
2026-04-25 20:04 14.41403 -17.38996 15845 ft 343 kts 51°
2026-04-25 20:05 14.42832 -17.37029 15827 ft 341 kts 52°
2026-04-25 20:05 14.44250 -17.35078 15573 ft 339 kts 52°
2026-04-25 20:05 14.45660 -17.33136 15224 ft 337 kts 52°
2026-04-25 20:05 14.47014 -17.31186 14808 ft 331 kts 60°
2026-04-25 20:06 14.47651 -17.28910 14193 ft 335 kts 90°
2026-04-25 20:06 14.47279 -17.26578 13837 ft 327 kts 114°
2026-04-25 20:06 14.46079 -17.24647 13548 ft 315 kts 138°
2026-04-25 20:06 14.44297 -17.23414 13133 ft 306 kts 162°
2026-04-25 20:07 14.42241 -17.23008 12886 ft 303 kts 180°
2026-04-25 20:07 14.40109 -17.22985 12847 ft 308 kts 183°
2026-04-25 20:07 14.37981 -17.23038 12842 ft 303 kts 184°
2026-04-25 20:07 14.35892 -17.23096 12826 ft 296 kts 184°
2026-04-25 20:08 14.33869 -17.23152 12823 ft 287 kts 184°
2026-04-25 20:08 14.31876 -17.23200 12826 ft 286 kts 184°
2026-04-25 20:08 14.29878 -17.23257 12836 ft 288 kts 184°
2026-04-25 20:08 14.27868 -17.23316 12852 ft 290 kts 184°
2026-04-25 20:09 14.25871 -17.23385 12850 ft 291 kts 184°
2026-04-25 20:09 14.23845 -17.23460 12847 ft 290 kts 184°
2026-04-25 20:09 14.21834 -17.23532 12780 ft 288 kts 184°
2026-04-25 20:09 14.19839 -17.23602 12572 ft 284 kts 184°
2026-04-25 20:10 14.17883 -17.23663 12265 ft 280 kts 184°
2026-04-25 20:10 14.15924 -17.23739 11777 ft 283 kts 184°
2026-04-25 20:10 14.13965 -17.23824 11396 ft 281 kts 184°
2026-04-25 20:10 14.12002 -17.23928 10934 ft 284 kts 184°
2026-04-25 20:11 14.10042 -17.24041 10636 ft 280 kts 184°
2026-04-25 20:11 14.08115 -17.24158 10315 ft 277 kts 184°
2026-04-25 20:11 14.06192 -17.24281 9954 ft 276 kts 184°
2026-04-25 20:11 14.04278 -17.24413 9558 ft 276 kts 184°
2026-04-25 20:12 14.02361 -17.24552 9113 ft 276 kts 184°
2026-04-25 20:12 14.00439 -17.24692 8678 ft 277 kts 184°
2026-04-25 20:12 13.98512 -17.24832 8253 ft 278 kts 184°
2026-04-25 20:12 13.97861 -17.24879 8110 ft 278 kts 184°
2026-04-25 20:13 13.94642 -17.25106 7432 ft 279 kts 184°
2026-04-25 20:13 13.92718 -17.25098 6995 ft 276 kts 167°
2026-04-25 20:13 13.91011 -17.24260 6867 ft 273 kts 137°
2026-04-25 20:13 13.89893 -17.22685 6860 ft 277 kts 109°
2026-04-25 20:14 13.89449 -17.20767 6857 ft 278 kts 97°
2026-04-25 20:14 13.89216 -17.18791 6844 ft 277 kts 94°
2026-04-25 20:14 13.89030 -17.16927 6840 ft 275 kts 94°
2026-04-25 20:14 13.88842 -17.15018 6847 ft 274 kts 94°
2026-04-25 20:15 13.88650 -17.13069 6846 ft 273 kts 94°
2026-04-25 20:15 13.88464 -17.11125 6843 ft 273 kts 94°
2026-04-25 20:15 13.88285 -17.09185 6841 ft 271 kts 92°
2026-04-25 20:15 13.88558 -17.07306 6848 ft 268 kts 62°
2026-04-25 20:16 13.89737 -17.05829 6854 ft 271 kts 34°
2026-04-25 20:16 13.91456 -17.05085 6850 ft 269 kts
2026-04-25 20:16 13.93311 -17.04964 6855 ft 267 kts 360°
2026-04-25 20:16 13.95166 -17.04983 6846 ft 266 kts 359°
2026-04-25 20:17 13.97018 -17.05027 6842 ft 266 kts 358°
2026-04-25 20:17 13.98867 -17.05075 6849 ft 266 kts 358°
2026-04-25 20:17 14.00718 -17.05125 6850 ft 266 kts 358°
2026-04-25 20:17 14.02572 -17.05177 6844 ft 267 kts 358°
2026-04-25 20:18 14.04426 -17.05230 6842 ft 267 kts 358°
2026-04-25 20:18 14.06284 -17.05284 6847 ft 266 kts 358°
2026-04-25 20:18 14.08137 -17.05340 6843 ft 267 kts 358°
2026-04-25 20:18 14.09993 -17.05397 6843 ft 267 kts 358°
2026-04-25 20:19 14.11845 -17.05454 6731 ft 266 kts 358°
2026-04-25 20:19 14.13677 -17.05509 6510 ft 262 kts 358°
2026-04-25 20:19 14.15494 -17.05563 6129 ft 261 kts 358°
2026-04-25 20:19 14.17306 -17.05616 5789 ft 257 kts 358°
2026-04-25 20:20 14.19075 -17.05667 5496 ft 252 kts 358°
2026-04-25 20:20 14.20812 -17.05719 5104 ft 248 kts 358°
2026-04-25 20:20 14.22526 -17.05770 4469 ft 249 kts 358°
2026-04-25 20:20 14.24265 -17.05825 4087 ft 248 kts 358°
2026-04-25 20:21 14.25974 -17.05884 3808 ft 242 kts 358°
2026-04-25 20:21 14.27617 -17.05944 3692 ft 229 kts 358°
2026-04-25 20:21 14.29166 -17.05999 3576 ft 217 kts 358°
2026-04-25 20:21 14.30639 -17.06056 3383 ft 207 kts 358°
2026-04-25 20:22 14.32023 -17.06108 3244 ft 195 kts 358°
2026-04-25 20:22 14.32476 -17.06127 3210 ft 192 kts 357°
2026-04-25 20:22 14.34734 -17.06328 3153 ft 201 kts 354°
2026-04-25 20:22 14.36115 -17.06479 3135 ft 202 kts 354°
2026-04-25 20:23 14.37510 -17.06650 3128 ft 201 kts 355°
2026-04-25 20:23 14.38892 -17.06761 3138 ft 198 kts 357°
2026-04-25 20:23 14.40267 -17.06818 3127 ft 197 kts 358°
2026-04-25 20:23 14.41644 -17.06853 3134 ft 200 kts 359°
2026-04-25 20:24 14.43046 -17.06880 3135 ft 203 kts 359°
2026-04-25 20:24 14.44421 -17.06903 3108 ft 192 kts 360°
2026-04-25 20:24 14.45731 -17.06924 3126 ft 189 kts 359°
2026-04-25 20:24 14.47047 -17.06945 3125 ft 188 kts 360°
2026-04-25 20:25 14.48348 -17.06966 3130 ft 186 kts 360°
2026-04-25 20:25 14.49639 -17.06987 3136 ft 185 kts 359°
2026-04-25 20:25 14.50912 -17.07008 3005 ft 184 kts
2026-04-25 20:25 14.52205 -17.07028 2806 ft 189 kts 360°
2026-04-25 20:26 14.53523 -17.07049 2549 ft 189 kts 360°
2026-04-25 20:26 14.54831 -17.07071 2310 ft 187 kts 360°
2026-04-25 20:26 14.56073 -17.07091 2076 ft 186 kts
2026-04-25 20:26 14.57427 -17.07113 1833 ft 187 kts
2026-04-25 20:27 14.58738 -17.07134 1598 ft 190 kts
2026-04-25 20:28 14.63547 -17.07211 688 ft 146 kts 359°
2026-04-25 20:28 14.64516 -17.07230 386 ft 133 kts 358°
2026-04-25 20:28 14.65476 -17.07259 314 ft 135 kts 358°
2026-04-25 20:28 14.66313 -17.07270 296 ft 92 kts 359°
2026-04-25 20:29 14.66798 -17.07276 303 ft 63 kts 359°
2026-04-25 20:29 14.67033 -17.07267 303 ft 22 kts 26°
2026-04-25 20:29 14.67076 -17.07181 304 ft 21 kts 88°
2026-04-25 20:29 14.67077 -17.07157 304 ft 0 kts 89°
2026-04-25 20:30 14.67097 -17.07103 305 ft 15 kts 38°
2026-04-25 20:30 14.67124 -17.07094 301 ft 0 kts
2026-04-25 20:30 14.67125 -17.07094 303 ft 0 kts
2026-04-25 20:31 14.67126 -17.07094 303 ft 1 kts